Date String (YYYY-MM-DD hh:mm:ss) UTC,Instrument flags,absolute air pressure of the measurement (hPa),sample flow rate (lpm),inlet stack bypass flow (lpm),air temperature of the measurement (°C),ambient temperature measured by the external sensor (°C),aerosol sample conditioner tube jacket temperature (°C),OPC LED temperature (°C),internal box temperature (°C),relative humidity of the measurement (%),span deviation,mass concentration of particles derived from Lorenz-Mie calculation of OPC scattering (μg/m³),mass concentration of particles derived from Lorenz-Mie calculation of OPC scattering (μg/m³),mass concentration of particles derived from Lorenz-Mie calculation of OPC scattering (μg/m³)
DateTimeUTC,F1_M11,P_M11,Q1_M11,Q2_M11,T1_M11,T2_M11,T3_M11,T4_M11,T5_M11,U1_M11,ZSPAN_M11,X0_M11,X2_M11,X1_M11
2023-12-20 01:00:00,SystemResetWarning,0826.5,5.00,000.00,026.0,025.0,000.0,034.3,027.4,12.5,0000.0,0003.74,0000.72,0000.43
2023-12-20 01:01:00,SystemResetWarning,0826.5,4.99,000.00,026.0,025.1,000.0,034.3,027.4,12.6,0000.0,0003.55,0000.69,0000.44
2023-12-20 01:02:00,SystemResetWarning,0826.5,5.00,000.00,026.0,025.1,000.0,034.3,027.4,12.6,0000.0,0003.19,0000.68,0000.45
2023-12-20 01:03:00,SystemResetWarning,0826.5,5.01,000.00,026.0,025.1,000.0,034.3,027.4,12.6,0000.0,0003.22,0000.70,0000.45
2023-12-20 01:04:00,SystemResetWarning,0826.5,5.00,000.00,026.0,025.1,000.0,034.3,027.4,12.6,0000.0,0002.65,0000.74,0000.47
2023-12-20 01:05:00,SystemResetWarning,0826.5,4.99,000.00,026.0,025.1,000.0,034.3,027.3,12.6,0000.0,0001.73,0000.74,0000.48
2023-12-20 01:06:00,SystemResetWarning,0826.4,5.00,000.00,026.0,025.1,000.0,034.3,027.4,12.6,0000.0,0001.81,0000.76,0000.48
2023-12-20 01:07:00,SystemResetWarning,0826.4,4.99,000.00,026.0,025.1,000.0,034.3,027.4,12.5,0000.0,0001.89,0000.80,0000.49
2023-12-20 01:08:00,SystemResetWarning,0826.4,5.00,000.00,026.0,025.0,000.0,034.3,027.4,12.5,0000.0,0001.88,0000.79,0000.50
2023-12-20 01:09:00,SystemResetWarning,0826.4,5.00,000.00,026.0,025.0,000.0,034.3,027.4,12.4,0000.0,0001.98,0000.79,0000.50
2023-12-20 01:10:00,SystemResetWarning,0826.4,5.02,000.00,026.0,025.0,000.0,034.3,027.4,12.3,0000.0,0001.89,0000.77,0000.49
2023-12-20 01:11:00,SystemResetWarning,0826.5,5.00,000.00,026.0,025.0,000.0,034.3,027.4,12.4,0000.0,0001.58,0000.73,0000.48
2023-12-20 01:12:00,SystemResetWarning,0826.5,4.99,000.00,026.0,025.0,000.0,034.3,027.4,12.3,0000.0,0001.54,0000.73,0000.47
2023-12-20 01:13:00,SystemResetWarning,0826.5,5.00,000.00,026.0,025.0,000.0,034.3,027.4,12.4,0000.0,0001.45,0000.71,0000.46
2023-12-20 01:14:00,SystemResetWarning,0826.6,5.02,000.00,026.0,025.0,000.0,034.3,027.4,12.4,0000.0,0001.63,0000.71,0000.47
2023-12-20 01:15:00,SystemResetWarning,0826.6,4.99,000.00,026.0,025.0,000.0,034.3,027.4,12.4,0000.0,0001.58,0000.69,0000.47
2023-12-20 01:16:00,SystemResetWarning,0826.6,5.00,000.00,026.0,025.0,000.0,034.3,027.4,12.4,0000.0,0001.50,0000.67,0000.47
2023-12-20 01:17:00,SystemResetWarning,0826.5,5.00,000.00,026.0,025.0,000.0,034.3,027.4,12.4,0000.0,0001.41,0000.65,0000.47
2023-12-20 01:18:00,SystemResetWarning,0826.5,5.00,000.00,026.0,025.0,000.0,034.3,027.4,12.4,0000.0,0001.34,0000.63,0000.46
2023-12-20 01:19:00,SystemResetWarning,0826.5,5.00,000.00,026.0,025.0,000.0,034.3,027.4,12.4,0000.0,0001.32,0000.63,0000.47
2023-12-20 01:20:00,SystemResetWarning,0826.4,5.00,000.00,026.0,025.0,000.0,034.3,027.4,12.4,0000.0,0001.28,0000.67,0000.48
2023-12-20 01:21:00,SystemResetWarning,0826.5,4.99,000.00,026.0,025.0,000.0,034.3,027.4,12.5,0000.0,0001.36,0000.70,0000.49
2023-12-20 01:22:00,SystemResetWarning,0826.6,5.00,000.00,026.0,025.0,000.0,034.3,027.4,12.5,0000.0,0001.41,0000.72,0000.50
2023-12-20 01:23:00,SystemResetWarning,0826.6,5.02,000.00,026.0,025.0,000.0,034.3,027.4,12.5,0000.0,0001.46,0000.74,0000.51
2023-12-20 01:24:00,SystemResetWarning,0826.6,5.00,000.00,026.0,025.0,000.0,034.3,027.4,12.5,0000.0,0001.50,0000.77,0000.52
2023-12-20 01:25:00,SystemResetWarning,0826.6,4.99,000.00,026.0,025.0,000.0,034.3,027.3,12.4,0000.0,0001.35,0000.79,0000.52
2023-12-20 01:26:00,SystemResetWarning,0826.6,4.99,000.00,026.0,025.0,000.0,034.3,027.3,12.3,0000.0,0001.29,0000.81,0000.52
2023-12-20 01:27:00,SystemResetWarning,0826.6,5.00,000.00,026.0,024.9,000.0,034.3,027.3,12.3,0000.0,0001.35,0000.84,0000.53
2023-12-20 01:28:00,SystemResetWarning,0826.6,5.01,000.00,026.0,024.9,000.0,034.3,027.4,12.3,0000.0,0001.44,0000.86,0000.54
2023-12-20 01:29:00,SystemResetWarning,0826.6,5.00,000.00,026.0,024.9,000.0,034.3,027.4,12.3,0000.0,0001.57,0000.91,0000.54
2023-12-20 01:30:00,SystemResetWarning,0826.6,5.01,000.00,026.0,024.9,000.0,034.3,027.3,12.2,0000.0,0001.62,0000.92,0000.55
2023-12-20 01:31:00,SystemResetWarning,0826.6,5.00,000.00,026.0,024.9,000.0,034.3,027.3,12.2,0000.0,0001.60,0000.91,0000.54
2023-12-20 01:32:00,SystemResetWarning,0826.6,4.99,000.00,026.0,024.9,000.0,034.3,027.3,12.2,0000.0,0001.91,0000.91,0000.54
2023-12-20 01:33:00,SystemResetWarning,0826.6,4.99,000.00,026.0,024.9,000.0,034.3,027.3,12.3,0000.0,0002.13,0000.98,0000.55
2023-12-20 01:34:00,SystemResetWarning,0826.6,5.00,000.00,026.0,024.9,000.0,034.3,027.3,12.1,0000.0,0002.90,0001.07,0000.55
2023-12-20 01:35:00,SystemResetWarning,0826.6,5.01,000.00,025.9,024.9,000.0,034.3,027.3,12.0,0000.0,0003.66,0001.10,0000.55
2023-12-20 01:36:00,SystemResetWarning,0826.6,5.01,000.00,025.9,024.9,000.0,034.3,027.3,12.0,0000.0,0004.00,0001.12,0000.54
2023-12-20 01:37:00,SystemResetWarning,0826.6,4.99,000.00,025.9,024.9,000.0,034.3,027.3,11.6,0000.0,0004.23,0001.12,0000.54
2023-12-20 01:38:00,SystemResetWarning,0826.6,4.99,000.00,025.9,024.9,000.0,034.3,027.3,11.5,0000.0,0004.59,0001.12,0000.53
2023-12-20 01:39:00,SystemResetWarning,0826.6,5.01,000.00,025.9,024.8,000.0,034.3,027.3,11.4,0000.0,0005.16,0001.15,0000.53
2023-12-20 01:40:00,SystemResetWarning,0826.6,5.01,000.00,025.9,024.8,000.0,034.3,027.3,11.5,0000.0,0005.20,0001.14,0000.52
2023-12-20 01:41:00,SystemResetWarning,0826.6,4.99,000.00,025.9,024.8,000.0,034.3,027.3,11.4,0000.0,0005.31,0001.16,0000.53
2023-12-20 01:42:00,SystemResetWarning,0826.6,4.99,000.00,025.9,024.8,000.0,034.2,027.3,11.6,0000.0,0005.30,0001.15,0000.53
2023-12-20 01:43:00,SystemResetWarning,0826.6,5.00,000.00,025.9,024.8,000.0,034.3,027.3,11.7,0000.0,0005.01,0001.12,0000.52
2023-12-20 01:44:00,SystemResetWarning,0826.6,5.00,000.00,025.9,024.8,000.0,034.3,027.3,11.7,0000.0,0005.22,0001.05,0000.51
2023-12-20 01:45:00,SystemResetWarning,0826.6,5.00,000.00,025.9,024.8,000.0,034.3,027.3,11.7,0000.0,0005.32,0000.94,0000.49
2023-12-20 01:46:00,SystemResetWarning,0826.6,5.00,000.00,025.9,024.8,000.0,034.2,027.3,11.7,0000.0,0004.31,0000.87,0000.49
2023-12-20 01:47:00,SystemResetWarning,0826.6,5.01,000.00,025.9,024.8,000.0,034.2,027.3,11.7,0000.0,0003.86,0000.81,0000.48
2023-12-20 01:48:00,SystemResetWarning,0826.6,5.00,000.00,025.9,024.8,000.0,034.2,027.3,11.7,0000.0,0003.65,0000.77,0000.47
2023-12-20 01:49:00,SystemResetWarning,0826.6,4.99,000.00,025.9,024.8,000.0,034.2,027.3,11.6,0000.0,0003.24,0000.71,0000.47
2023-12-20 01:50:00,SystemResetWarning,0826.6,4.99,000.00,025.9,024.8,000.0,034.2,027.3,11.7,0000.0,0002.54,0000.67,0000.46
2023-12-20 01:51:00,SystemResetWarning,0826.6,5.00,000.00,025.9,024.8,000.0,034.2,027.3,11.7,0000.0,0002.30,0000.64,0000.46
2023-12-20 01:52:00,SystemResetWarning,0826.6,5.00,000.00,025.9,024.8,000.0,034.2,027.3,11.7,0000.0,0002.14,0000.61,0000.46
2023-12-20 01:53:00,SystemResetWarning,0826.6,5.02,000.00,025.9,024.8,000.0,034.2,027.3,11.7,0000.0,0002.16,0000.62,0000.46
2023-12-20 01:54:00,SystemResetWarning,0826.6,4.99,000.00,025.9,024.8,000.0,034.2,027.3,11.7,0000.0,0002.16,0000.62,0000.46
2023-12-20 01:55:00,SystemResetWarning,0826.6,4.99,000.00,025.9,024.8,000.0,034.2,027.2,11.7,0000.0,0001.84,0000.62,0000.46
2023-12-20 01:56:00,SystemResetWarning,0826.6,5.01,000.00,025.9,024.8,000.0,034.2,027.2,11.6,0000.0,0001.00,0000.62,0000.47
2023-12-20 01:57:00,SystemResetWarning,0826.6,5.02,000.00,025.8,024.8,000.0,034.2,027.2,11.6,0000.0,0001.03,0000.64,0000.48
2023-12-20 01:58:00,SystemResetWarning,0826.6,4.99,000.00,025.8,024.8,000.0,034.2,027.2,11.6,0000.0,0002.32,0000.66,0000.49
2023-12-20 01:59:00,SystemResetWarning,0826.6,4.99,000.00,025.8,024.8,000.0,034.2,027.1,11.7,0000.0,0002.53,0000.68,0000.49
